STARLINK-3550, 52373

Orbit data source: Space-Track

STARLINK-3550, 52373 is a payload satellite owned by SpaceX/Seattle (US) in LEO that was launched on Fri, 29 Apr 2022 UTC via an FALCON 9 launch vehicle from the Air Force Eastern Test Range (AFETR). Payload-class satellites include a variety of spacecraft equipped with specific instruments for various scientific and technological missions. These include communications satellites like Starlink; space stations such as the ISS; scientific satellites like the Hubble; Earth observation satellites from companies like Planet Labs, Umbra, and HawkEye 360; GPS; miniature CubeSats for education and research; and military/defense satellites.

Loading next visibility...
Identifier
52373, 2022-045AU
Orbit
LEO
Country
Flag of USUS
Related business
Manufacturer
SpaceX/Seattle
Mission
Operational Commercial Communications
Bus & Motor
STARLINK, Unknown motor
Mass
297 kg wet, ~275 kg dry
Launch date (UTC)
2022-04-29 (4 years ago)
Launch vehicle
FALCON 9
Launch site
Air Force Eastern Test Range (AFETR)
Object type
Payload
Rocket body
Debris
Shape & HBR
Box + 1 Pan, 10.1 m
Radar Cross Section
11.087 m², Large (>1 m²)

Expand to show TLE details & history
Last TLE update: 5 hours ago

TLE from 5 hours ago
0 STARLINK-3550
1 52373U 22045AU  26119.95231486  .00000721  00000-0  63358-4 0  9999
2 52373  53.2173 318.9904 0001358  66.7808 293.3327 15.08837903223661
Epoch: 2026-04-29T22:51Z
TLE epoch observation values (Epoch: 2026-04-29T22:51:20.003Z)
Latitude
-0.00005°
Longitude
118.25112°
Altitude
540.275 km
Speed
7.594 km/s
True Right ascension
21h 15m 57s
True Declination
0° 00' 00"
Sunlit
Object was in daylight at epoch
Visualization orbit readout
Latitude
Unknown
Longitude
Unknown
Altitude
Unknown
Speed
Unknown
Apparent Right ascension
Unknown
Apparent Declination
Unknown
Sunlit
N/A
Visualization observer readout
Local Sidereal Time
11:13:39
Azimuth
Unknown
Elevation
Unknown
Doppler factor
Unknown
Orbital elements
Apogee altitude
540.934 km
Perigee altitude
539.055 km
Semi-major axis
6,918.132 km
Eccentricity
0.00014
Inclination
53.2173°
RAAN
318.9904°
Arg. of periapsis
66.7808°
True anomaly
293.31841°
Mean anomaly
293.3327°
Eccentric anomaly
293.32556°
Mean motion
3.7719 °/min
Orbital period
95.44 mins
BSTAR
0.000063358
Loading maneuver chart data...
Computing Atmospheric mass density...

Documentation

Showing up to 5 results
|